CAPE
0 0 0 0 0 0 0 3 7 0 0 0 0 27 80 0 15 21 0 0 0 0 0 0 4 5 157 184 184 267 311 489 686 214 154 230 412 353 268 255 387 435 621 134 4 8 8 2 1
0 0 0 0 0 0 3 0 0 0 0 0 0 0 16 3 0 0 0 0 0 0 0 0 7 10 47 120 112 84 113 248 339 408 359 321 330 419 254 127 329 435 624 469 182 33 0 0 0
0 0 0 0 10 6 12 0 0 0 0 0 0 0 0 0 0 0 0 0 0 0 0 5 14 17 19 15 36 26 24 29 49 202 189 215 337 274 182 138 284 312 605 716 482 119 64 0 0
0 0 0 0 0 0 0 0 0 0 0 0 0 0 0 0 0 0 0 0 0 0 0 14 21 18 23 18 19 19 13 13 6 18 75 191 174 78 9 6 196 258 316 672 488 198 123 0 0
0 0 0 0 0 0 0 0 0 0 0 0 0 0 0 0 0 0 0 0 0 0 0 3 25 22 23 17 16 12 11 8 4 6 10 11 17 43 45 12 15 207 235 319 424 332 213 22 0
0 0 0 0 0 0 0 0 0 0 0 0 0 0 0 0 0 0 0 0 0 0 0 0 1 20 18 14 9 7 4 3 2 0 1 4 4 6 10 10 7 17 139 283 345 405 269 200 49
0 0 0 0 0 0 0 0 0 0 0 0 0 0 0 0 0 0 0 0 0 0 0 0 0 0 1 3 3 2 2 0 0 0 0 0 0 1 2 2 5 4 6 44 238 344 423 234 136
0 0 0 0 0 0 0 0 0 0 0 0 0 0 0 0 0 0 0 0 0 0 0 0 0 0 0 0 0 0 0 0 0 0 0 0 0 0 0 0 1 1 3 3 4 64 261 416 393
0 0 0 0 0 0 0 0 0 0 0 0 0 0 0 0 0 0 0 0 0 0 0 0 0 0 0 0 0 0 0 0 0 0 0 0 0 0 0 0 0 0 0 1 1 1 17 84 107
0 0 0 0 0 0 0 0 0 0 0 0 0 0 0 0 0 0 0 0 0 0 0 0 0 0 0 0 0 0 0 0 0 0 0 0 0 0 0 0 0 0 0 0 0 0 0 54 164
0 0 0 0 0 0 0 0 0 0 0 0 0 0 0 0 0 0 0 0 0 0 0 0 0 0 0 0 0 0 0 0 0 0 0 0 0 0 0 0 0 0 0 0 0 0 0 4 113
0 0 0 0 0 0 0 0 0 0 0 0 0 0 0 0 0 0 0 0 0 0 0 0 0 0 0 0 0 0 0 0 0 0 0 0 0 0 0 0 0 0 0 0 0 0 0 0 0
0 0 0 0 0 0 0 0 0 0 0 0 0 0 0 0 0 0 0 0 0 0 0 0 0 0 0 0 0 0 0 0 0 0 0 0 0 0 0 0 0 0 0 0 0 0 0 0 0
0 0 0 0 0 0 0 0 0 0 0 0 0 0 0 0 0 0 0 0 0 0 0 0 0 0 0 0 0 0 0 0 0 0 0 0 0 0 0 0 0 0 0 0 0 0 0 0 0
0 0 0 0 0 0 0 0 0 0 0 0 0 0 0 0 0 0 0 0 0 0 0 0 0 0 0 0 0 0 0 0 0 0 0 0 0 0 0 0 0 0 0 0 0 0 0 0 0
0 0 0 0 0 0 0 0 0 0 0 0 0 0 0 0 0 0 0 0 0 0 0 0 0 0 0 0 0 0 0 0 0 0 0 0 0 0 0 0 0 0 0 0 0 0 0 0 0
0 0 0 0 0 0 0 0 0 0 0 0 0 0 0 0 0 0 0 0 0 0 0 0 0 0 0 0 0 0 0 0 0 0 0 0 0 0 0 0 0 0 0 0 0 0 0 0 0
0 0 0 0 0 0 0 0 0 0 0 0 0 0 0 0 0 0 0 0 0 0 0 0 0 0 0 0 0 0 0 0 0 0 0 0 0 0 0 0 0 0 0 0 0 0 0 0 0
0 0 0 0 0 0 0 0 0 0 0 0 0 0 0 0 0 0 0 0 0 0 0 0 0 0 0 0 0 0 0 0 0 0 0 0 0 0 0 0 0 0 0 0 0 0 0 0 0
0 0 0 0 0 0 0 0 0 0 0 0 0 0 0 0 0 0 0 0 0 0 0 0 0 0 0 0 0 0 0 0 0 0 0 0 0 0 0 0 0 0 0 0 0 0 0 0 0
0 0 0 0 0 0 0 0 0 0 0 0 0 0 0 0 0 0 0 0 0 0 0 0 0 0 0 0 0 0 0 0 0 0 0 0 0 0 0 0 0 0 0 0 0 0 0 0 0
0 0 0 0 0 0 0 11 0 0 0 0 0 0 0 0 0 0 0 0 0 0 0 0 0 0 0 0 0 0 0 0 0 0 0 0 0 0 0 0 0 0 0 0 0 0 0 0 0
0 0 0 0 0 0 0 0 0 0 0 0 0 0 0 0 0 0 0 0 0 0 0 0 0 0 0 0 0 0 0 0 0 0 0 0 0 0 0 0 0 0 0 0 0 0 0 0 0
0 0 0 0 0 6 0 0 1 1 5 0 0 0 0 0 0 0 0 0 0 0 0 0 0 0 0 0 0 0 0 0 0 0 0 0 0 0 0 0 0 0 0 0 0 0 0 0 0
0 0 12 8 10 5 0 0 6 4 2 3 1 0 1 0 0 0 0 0 0 0 0 0 0 0 0 0 0 0 0 0 0 0 0 0 0 0 0 0 0 0 0 0 0 0 0 0 0
0 0 10 3 3 2 0 3 6 5 0 0 0 0 0 0 0 0 0 0 0 0 0 0 0 0 0 0 0 0 0 0 0 0 0 0 0 0 0 0 0 0 0 0 0 0 0 0 0
0 0 0 0 0 0 0 0 1 1 0 0 1 0 0 2 0 0 0 0 0 0 0 0 0 0 0 0 0 0 0 0 0 0 0 0 0 0 0 0 0 0 0 0 0 0 0 0 0
2 1 8 8 6 7 1 0 4 1 2 2 1 3 2 0 1 0 0 0 0 0 0 0 0 0 0 0 0 0 0 0 0 0 0 0 0 0 0 0 0 0 0 0 0 0 0 0 0
3 4 1 1 1 16 5 7 10 5 7 6 4 0 2 3 0 0 0 0 0 0 0 0 0 0 0 0 0 0 0 0 0 0 0 0 0 0 0 0 0 0 0 0 0 0 0 0 0
1 4 4 12 3 1 1 4 9 7 8 7 5 6 0 1 0 0 0 0 0 0 0 0 0 0 0 0 0 0 0 0 0 0 0 0 0 0 0 0 0 0 0 0 0 0 0 0 0
CIN
-0 -0 -0 -0 -0 -0 -0 -0 -0 -0 -0 -0 -0 -43 -33 -0 -70 -8 -0 -0 -0 -0 -0 -0 -0 -0 -13 -14 -11 -12 -4 -0 -0 -38 -59 -39 -6 -3 -6 -9 -2 -7 -3 -84 -0 -0 -0 -0 -0
-0 -0 -0 -0 -0 -0 -0 -0 -0 -0 -0 -0 -0 -0 -123 -12 -0 -0 -0 -0 -0 -0 -0 -0 -0 -0 -22 -26 -20 -24 -13 -26 -11 -0 -3 -11 -9 -4 -21 -49 -5 -4 -0 -7 -83 -13 -0 -0 -0
-0 -0 -0 -0 -1 -0 -0 -0 -0 -0 -0 -0 -0 -0 -0 -0 -0 -0 -0 -0 -0 -0 -0 -0 -0 -0 -0 -1 -20 -19 -66 -84 -62 -34 -44 -35 -6 -15 -31 -16 -12 -5 -2 -1 -2 -12 -1 -0 -0
-0 -0 -0 -0 -0 -0 -0 -0 -0 -0 -0 -0 -0 -0 -0 -0 -0 -0 -0 -0 -0 -0 -0 -0 -0 -0 -0 -0 -0 -0 -0 -0 -0 -89 -48 -24 -7 -10 -0 -0 -15 -13 -6 -0 -3 -69 -0 -0 -0
-0 -0 -0 -0 -0 -0 -0 -0 -0 -0 -0 -0 -0 -0 -0 -0 -0 -0 -0 -0 -0 -0 -0 -0 -0 -0 -0 -0 -0 -0 -0 -0 -0 -0 -0 -0 -36 -44 -48 -0 -17 -7 -19 -6 -0 -26 -65 -13 -0
-0 -0 -0 -0 -0 -0 -0 -0 -0 -0 -0 -0 -0 -0 -0 -0 -0 -0 -0 -0 -0 -0 -0 -0 -0 -0 -0 -0 -0 -0 -0 -0 -0 -0 -0 -0 -0 -0 -1 -0 -0 -46 -0 -13 -2 -0 -39 -0 -10
-0 -0 -0 -0 -0 -0 -0 -0 -0 -0 -0 -0 -0 -0 -0 -0 -0 -0 -0 -0 -0 -0 -0 -0 -0 -0 -0 -0 -0 -0 -0 -0 -0 -0 -0 -0 -0 -0 -0 -0 -0 -0 -1 -29 -12 -7 -2 -0 -1
-0 -0 -0 -0 -0 -0 -0 -0 -0 -0 -0 -0 -0 -0 -0 -0 -0 -0 -0 -0 -0 -0 -0 -0 -0 -0 -0 -0 -0 -0 -0 -0 -0 -0 -0 -0 -0 -0 -0 -0 -0 -0 -0 -0 -0 -45 -3 -0 -0
-0 -0 -0 -0 -0 -0 -0 -0 -0 -0 -0 -0 -0 -0 -0 -0 -0 -0 -0 -0 -0 -0 -0 -0 -0 -0 -0 -0 -0 -0 -0 -0 -0 -0 -0 -0 -0 -0 -0 -0 -0 -0 -0 -0 -0 -0 -65 -50 -33
-0 -0 -0 -0 -0 -0 -0 -0 -0 -0 -0 -0 -0 -0 -0 -0 -0 -0 -0 -0 -0 -0 -0 -0 -0 -0 -0 -0 -0 -0 -0 -0 -0 -0 -0 -0 -0 -0 -0 -0 -0 -0 -0 -0 -0 -0 -0 -120 -9
-0 -0 -0 -0 -0 -0 -0 -0 -0 -0 -0 -0 -0 -0 -0 -0 -0 -0 -0 -0 -0 -0 -0 -0 -0 -0 -0 -0 -0 -0 -0 -0 -0 -0 -0 -0 -0 -0 -0 -0 -0 -0 -0 -0 -0 -0 -0 -18 -40
-0 -0 -0 -0 -0 -0 -0 -0 -0 -0 -0 -0 -0 -0 -0 -0 -0 -0 -0 -0 -0 -0 -0 -0 -0 -0 -0 -0 -0 -0 -0 -0 -0 -0 -0 -0 -0 -0 -0 -0 -0 -0 -0 -0 -0 -0 -0 -0 -0
-0 -0 -0 -0 -0 -0 -0 -0 -0 -0 -0 -0 -0 -0 -0 -0 -0 -0 -0 -0 -0 -0 -0 -0 -0 -0 -0 -0 -0 -0 -0 -0 -0 -0 -0 -0 -0 -0 -0 -0 -0 -0 -0 -0 -0 -0 -0 -0 -0
-0 -0 -0 -0 -0 -0 -0 -0 -0 -0 -0 -0 -0 -0 -0 -0 -0 -0 -0 -0 -0 -0 -0 -0 -0 -0 -0 -0 -0 -0 -0 -0 -0 -0 -0 -0 -0 -0 -0 -0 -0 -0 -0 -0 -0 -0 -0 -0 -0
-0 -0 -0 -0 -0 -0 -0 -0 -0 -0 -0 -0 -0 -0 -0 -0 -0 -0 -0 -0 -0 -0 -0 -0 -0 -0 -0 -0 -0 -0 -0 -0 -0 -0 -0 -0 -0 -0 -0 -0 -0 -0 -0 -0 -0 -0 -0 -0 -0
-0 -0 -0 -0 -0 -0 -0 -0 -0 -0 -0 -0 -0 -0 -0 -0 -0 -0 -0 -0 -0 -0 -0 -0 -0 -0 -0 -0 -0 -0 -0 -0 -0 -0 -0 -0 -0 -0 -0 -0 -0 -0 -0 -0 -0 -0 -0 -0 -0
-0 -0 -0 -0 -0 -0 -0 -0 -0 -0 -0 -0 -0 -0 -0 -0 -0 -0 -0 -0 -0 -0 -0 -0 -0 -0 -0 -0 -0 -0 -0 -0 -0 -0 -0 -0 -0 -0 -0 -0 -0 -0 -0 -0 -0 -0 -0 -0 -0
-0 -0 -0 -0 -0 -0 -0 -0 -0 -0 -0 -0 -0 -0 -0 -0 -0 -0 -0 -0 -0 -0 -0 -0 -0 -0 -0 -0 -0 -0 -0 -0 -0 -0 -0 -0 -0 -0 -0 -0 -0 -0 -0 -0 -0 -0 -0 -0 -0
-0 -0 -0 -0 -0 -0 -0 -0 -0 -0 -0 -0 -0 -0 -0 -0 -0 -0 -0 -0 -0 -0 -0 -0 -0 -0 -0 -0 -0 -0 -0 -0 -0 -0 -0 -0 -0 -0 -0 -0 -0 -0 -0 -0 -0 -0 -0 -0 -0
-0 -0 -0 -0 -0 -0 -0 -0 -0 -0 -0 -0 -0 -0 -0 -0 -0 -0 -0 -0 -0 -0 -0 -0 -0 -0 -0 -0 -0 -0 -0 -0 -0 -0 -0 -0 -0 -0 -0 -0 -0 -0 -0 -0 -0 -0 -0 -0 -0
-0 -0 -0 -0 -0 -0 -0 -0 -0 -0 -0 -0 -0 -0 -0 -0 -0 -0 -0 -0 -0 -0 -0 -0 -0 -0 -0 -0 -0 -0 -0 -0 -0 -0 -0 -0 -0 -0 -0 -0 -0 -0 -0 -0 -0 -0 -0 -0 -0
-0 -0 -0 -0 -0 -0 -0 -0 -0 -0 -0 -0 -0 -0 -0 -0 -0 -0 -0 -0 -0 -0 -0 -0 -0 -0 -0 -0 -0 -0 -0 -0 -0 -0 -0 -0 -0 -0 -0 -0 -0 -0 -0 -0 -0 -0 -0 -0 -0
-0 -0 -0 -0 -0 -0 -0 -0 -0 -0 -0 -0 -0 -0 -0 -0 -0 -0 -0 -0 -0 -0 -0 -0 -0 -0 -0 -0 -0 -0 -0 -0 -0 -0 -0 -0 -0 -0 -0 -0 -0 -0 -0 -0 -0 -0 -0 -0 -0
-0 -0 -0 -0 -0 -0 -0 -0 -0 -0 -0 -0 -0 -0 -0 -0 -0 -0 -0 -0 -0 -0 -0 -0 -0 -0 -0 -0 -0 -0 -0 -0 -0 -0 -0 -0 -0 -0 -0 -0 -0 -0 -0 -0 -0 -0 -0 -0 -0
-0 -0 -0 -0 -0 -0 -0 -0 -0 -0 -0 -0 -0 -0 -0 -0 -0 -0 -0 -0 -0 -0 -0 -0 -0 -0 -0 -0 -0 -0 -0 -0 -0 -0 -0 -0 -0 -0 -0 -0 -0 -0 -0 -0 -0 -0 -0 -0 -0
-0 -0 -0 -0 -0 -0 -0 -0 -0 -0 -0 -0 -0 -0 -0 -0 -0 -0 -0 -0 -0 -0 -0 -0 -0 -0 -0 -0 -0 -0 -0 -0 -0 -0 -0 -0 -0 -0 -0 -0 -0 -0 -0 -0 -0 -0 -0 -0 -0
-0 -0 -0 -0 -0 -0 -0 -0 -0 -0 -0 -0 -0 -0 -0 -0 -0 -0 -0 -0 -0 -0 -0 -0 -0 -0 -0 -0 -0 -0 -0 -0 -0 -0 -0 -0 -0 -0 -0 -0 -0 -0 -0 -0 -0 -0 -0 -0 -0
-0 -0 -0 -0 -0 -0 -0 -0 -0 -0 -0 -0 -0 -0 -0 -0 -0 -0 -0 -0 -0 -0 -0 -0 -0 -0 -0 -0 -0 -0 -0 -0 -0 -0 -0 -0 -0 -0 -0 -0 -0 -0 -0 -0 -0 -0 -0 -0 -0
-0 -0 -0 -0 -0 -0 -0 -0 -0 -0 -0 -0 -0 -0 -0 -0 -0 -0 -0 -0 -0 -0 -0 -0 -0 -0 -0 -0 -0 -0 -0 -0 -0 -0 -0 -0 -0 -0 -0 -0 -0 -0 -0 -0 -0 -0 -0 -0 -0
-0 -0 -0 -0 -0 -0 -0 -0 -0 -0 -0 -0 -0 -0 -0 -0 -0 -0 -0 -0 -0 -0 -0 -0 -0 -0 -0 -0 -0 -0 -0 -0 -0 -0 -0 -0 -0 -0 -0 -0 -0 -0 -0 -0 -0 -0 -0 -0 -0
Wind_Speed
4 4 4 1 3 2 8 9 14 19 5 4 9 4 9 8 2 0 4 3 6 6 2 5 7 9 11 16 17 16 11 12 13 13 12 10 10 9 9 8 7 7 12 12 11 12 10 10 10
2 4 3 3 5 5 14 16 18 16 14 2 3 8 5 3 3 6 7 6 4 5 4 3 7 9 12 15 16 16 16 16 10 13 12 11 9 10 10 9 7 6 10 12 11 12 11 9 9
4 3 7 7 10 18 14 17 19 13 8 5 2 1 6 3 4 7 5 6 8 6 5 5 10 12 14 16 15 17 15 16 17 14 12 11 11 11 11 10 9 7 10 10 12 11 10 9 8
5 5 1 14 24 21 23 9 14 10 6 8 8 5 2 3 5 4 8 7 10 8 8 8 12 14 15 16 16 16 15 15 18 17 17 14 12 11 10 10 11 9 6 10 11 11 9 10 9
4 4 12 18 26 19 10 15 9 12 7 9 7 8 2 2 5 12 9 7 10 9 11 9 14 14 15 16 17 16 16 15 16 16 16 15 15 14 13 13 11 11 8 6 10 10 9 9 8
7 5 10 22 21 19 11 10 8 9 8 6 7 3 5 6 11 12 8 7 7 9 9 11 17 16 16 16 16 15 15 14 13 15 14 14 14 14 14 13 12 12 11 7 8 10 9 9 8
11 9 20 17 17 16 18 11 13 11 9 8 2 6 4 10 12 11 9 7 7 7 8 8 9 11 15 15 14 14 14 13 13 13 14 13 13 13 13 13 11 11 12 10 9 5 10 9 9
7 6 18 13 15 16 15 11 3 11 9 6 2 7 6 15 14 11 9 8 6 7 7 7 7 7 8 9 13 13 12 12 14 13 13 10 9 9 11 7 10 10 11 11 10 7 3 8 9
2 10 16 21 17 9 6 11 3 2 6 3 2 2 2 21 16 12 10 8 7 5 6 5 6 5 6 6 7 8 10 10 10 9 10 4 4 4 5 9 9 10 11 11 10 10 7 7 5
11 13 17 6 10 7 9 9 8 7 9 7 5 6 14 19 18 15 13 11 8 6 6 5 5 4 5 5 5 5 6 6 7 6 6 4 5 6 5 6 6 9 6 8 8 8 4 4 5
8 14 11 4 3 3 5 7 7 6 9 10 12 16 18 19 17 16 13 11 10 7 6 5 5 4 4 4 3 3 3 4 5 7 5 5 4 3 3 3 3 4 6 4 4 3 3 2 1
9 7 5 1 1 2 4 4 6 11 1 4 1 18 20 21 19 17 14 12 10 9 6 5 5 4 5 3 4 5 4 4 4 6 6 4 2 3 3 3 4 4 4 5 4 2 3 2 0
12 6 3 1 1 2 2 6 5 8 2 3 9 16 18 17 17 15 13 11 11 10 8 5 5 5 4 5 4 5 5 4 4 5 7 4 4 3 4 4 4 4 4 5 4 3 2 1 2
2 4 2 2 2 1 4 3 3 4 5 7 11 14 15 17 17 14 15 13 11 10 9 7 6 5 5 6 6 5 5 5 5 6 6 7 5 3 3 3 4 4 4 3 3 4 3 3 3
4 4 2 5 2 2 2 10 9 4 7 7 9 10 13 14 15 15 13 14 12 10 9 8 7 6 6 6 6 5 5 5 5 5 7 7 6 5 4 4 4 5 5 5 4 3 2 3 3
4 3 7 4 3 3 4 18 6 1 7 9 9 9 10 13 14 13 13 11 12 11 10 8 6 7 7 6 5 4 5 5 5 5 5 7 7 6 5 4 4 5 4 4 4 4 4 4 4
5 8 9 4 1 2 8 8 5 2 3 6 7 8 9 11 13 12 13 12 12 11 10 10 8 8 8 7 5 6 6 5 5 4 5 7 7 6 5 4 4 5 4 4 4 3 4 4 4
6 8 5 7 4 4 6 15 5 3 2 4 6 7 9 11 13 13 13 11 11 10 9 9 7 8 8 6 5 4 4 4 4 5 5 6 5 6 4 4 5 4 3 4 4 4 3 4 5
3 2 4 1 2 3 10 13 10 7 6 7 6 9 10 12 12 12 12 12 11 10 9 9 9 8 5 5 5 3 3 4 4 5 6 6 5 5 5 3 4 4 5 5 6 4 5 3 5
4 4 8 3 1 3 3 10 12 7 4 5 6 7 9 10 12 13 14 13 12 11 10 8 7 6 4 4 4 3 4 3 4 3 5 6 6 5 4 4 4 5 3 5 6 6 3 3 5
3 4 4 3 2 1 6 9 4 5 11 10 7 5 4 10 12 15 13 15 13 13 11 9 8 7 5 6 5 5 5 4 3 2 3 4 5 5 5 5 4 4 4 3 4 5 6 3 3
5 1 1 1 4 4 2 3 4 4 4 14 11 11 9 6 9 13 14 10 12 10 11 9 8 8 6 5 4 4 3 4 3 2 3 3 4 5 5 5 5 4 3 4 4 4 4 4 3
3 2 3 2 2 3 6 5 7 3 6 17 15 14 11 9 8 12 15 12 10 8 8 8 8 6 6 5 4 3 5 4 4 3 4 3 3 4 5 5 4 4 3 4 3 3 3 3 3
6 3 3 3 1 6 4 5 5 7 12 15 16 15 13 11 9 12 14 13 9 8 6 8 6 6 5 4 4 4 5 4 3 3 2 2 2 2 4 4 3 3 3 3 3 2 2 3 2
2 3 3 4 5 1 2 5 7 6 10 11 14 16 14 10 7 10 14 14 13 12 10 7 8 8 6 5 4 4 4 3 3 2 2 1 1 1 3 3 3 3 3 4 4 3 3 3 3
2 3 4 5 3 4 3 5 6 6 5 10 11 11 12 10 5 5 10 11 12 11 11 9 8 7 6 5 5 4 3 2 2 2 1 0 1 2 3 3 4 3 3 4 4 3 3 4 3
3 2 2 1 1 3 4 5 5 9 12 15 16 16 16 13 7 2 6 9 10 10 10 9 8 6 6 6 5 4 4 4 3 3 1 1 1 1 2 3 4 4 3 4 4 3 4 4 5
4 3 3 3 4 6 4 3 5 12 13 14 17 17 15 13 10 5 3 6 8 7 6 5 6 7 6 7 6 5 5 4 3 3 3 2 1 2 3 3 4 4 4 4 4 3 3 5 4
1 1 1 4 3 4 1 5 6 8 9 12 13 14 14 12 9 7 4 4 6 7 6 6 6 6 6 6 6 6 5 5 4 4 3 3 2 3 3 4 4 5 5 4 5 5 5 6 6
3 4 3 4 4 0 4 5 5 7 8 11 13 13 14 13 10 6 5 5 4 5 6 6 6 7 6 6 7 6 5 5 5 4 4 3 3 3 4 4 5 5 5 5 5 6 6 7 7
Wind_Direction
268 221 155 104 110 95 221 230 233 207 241 355 315 295 214 2 194 252 126 97 135 114 13 345 36 36 101 104 95 85 110 127 129 130 122 114 106 111 104 94 106 113 132 123 118 107 99 86 76
201 183 176 99 202 204 223 219 208 207 208 86 293 303 232 109 51 107 143 131 120 89 358 340 68 64 74 98 100 89 76 78 122 123 114 111 108 102 90 75 78 119 140 132 122 120 113 96 77
220 234 193 195 222 224 232 205 214 209 162 147 243 294 341 90 101 123 96 136 120 55 7 81 78 74 77 78 84 90 82 75 69 74 103 102 98 93 80 69 62 77 134 126 124 127 123 114 94
182 196 198 232 223 228 235 197 201 158 176 176 240 242 144 350 153 144 136 144 113 52 20 86 85 79 79 79 79 84 87 79 74 62 64 72 87 88 78 70 58 54 85 130 134 137 128 122 112
194 211 216 234 234 231 221 241 214 199 184 194 182 212 176 140 139 138 142 137 117 65 41 53 80 78 76 77 74 73 73 74 73 69 60 61 62 63 70 64 50 54 60 136 149 146 141 133 127
189 260 220 225 226 215 217 195 192 203 200 152 189 176 135 145 162 142 132 120 96 81 57 53 47 62 63 66 67 66 68 66 68 71 63 54 55 58 59 58 56 52 49 62 160 155 152 144 138
234 218 232 245 241 217 219 179 203 198 178 197 119 189 107 173 167 141 140 120 95 78 69 60 53 51 46 59 60 64 63 62 59 59 63 53 51 55 54 53 50 53 59 49 47 168 160 157 144
242 247 240 231 221 236 213 190 204 195 194 112 184 199 177 179 154 142 146 127 106 90 74 73 60 61 52 48 57 63 61 62 64 58 58 45 58 49 58 58 45 55 57 51 49 53 108 170 148
221 234 237 222 226 213 150 208 162 85 139 168 132 13 82 145 147 149 150 136 129 95 98 83 79 67 78 73 64 59 63 61 63 58 49 76 59 50 68 54 46 50 51 53 49 37 44 107 122
211 230 247 255 233 240 174 199 182 192 172 194 173 101 131 151 160 165 168 158 151 138 103 97 92 83 87 83 70 61 66 53 50 48 50 49 48 38 20 64 51 51 38 59 46 45 42 231 178
208 245 248 226 244 271 184 199 175 212 214 202 203 161 158 163 169 173 174 167 157 135 104 97 91 90 92 95 96 69 50 69 51 43 32 53 49 12 11 10 29 33 9 30 35 47 53 77 160
234 251 248 125 88 226 206 141 201 217 30 358 135 163 163 172 175 175 168 157 148 138 118 107 100 92 82 79 74 70 67 48 56 53 35 33 45 38 35 6 21 35 18 22 16 23 42 24 149
231 229 201 199 214 245 282 224 247 231 176 74 136 158 170 175 177 172 158 153 146 140 129 111 104 96 89 88 86 89 71 61 56 56 45 37 46 38 42 21 360 32 28 13 358 348 350 323 304
83 222 220 183 202 281 255 248 224 140 150 133 158 170 174 178 176 167 161 156 155 144 138 127 110 96 95 88 83 83 87 77 64 54 48 50 53 38 32 50 20 17 4 16 350 344 330 307 302
118 200 234 212 185 210 280 240 230 111 165 166 175 174 175 179 176 176 169 158 155 148 140 133 124 106 101 93 87 78 75 72 69 60 44 48 56 47 46 41 38 14 5 344 340 331 299 303 317
196 222 226 128 208 130 220 254 89 91 180 184 179 180 180 180 182 173 166 161 155 148 147 139 127 118 105 93 86 80 78 78 68 60 58 43 44 38 55 41 36 13 6 352 350 353 326 317 311
208 247 224 177 229 283 223 257 45 60 215 198 194 188 190 178 179 174 173 164 159 153 147 138 137 126 113 102 94 88 77 76 73 59 54 50 43 32 42 48 33 12 15 14 358 9 348 320 311
214 219 227 232 133 214 230 254 257 83 188 228 216 201 194 192 190 179 170 160 158 154 150 139 134 133 126 120 114 99 92 76 73 63 43 48 46 34 33 43 33 18 27 23 9 6 12 342 327
119 172 241 136 92 255 238 268 273 266 244 243 224 217 205 201 184 176 168 163 158 157 153 152 146 142 145 141 132 124 100 102 84 74 54 36 47 42 37 38 41 27 27 24 13 354 355 9 347
196 226 233 132 116 272 274 274 277 318 336 338 295 238 224 201 181 179 173 170 173 165 164 157 147 153 152 146 121 108 119 87 79 81 63 43 36 36 48 39 43 40 30 22 28 21 345 6 7
194 237 209 294 175 210 288 252 186 75 61 51 38 6 264 223 201 185 176 178 175 176 171 164 146 140 129 121 125 117 119 127 143 95 69 48 45 51 28 41 42 40 34 47 27 18 11 356 34
227 111 169 216 234 245 296 227 116 45 104 36 9 360 349 297 223 199 180 187 176 174 160 157 150 139 129 144 146 168 140 140 104 101 80 73 37 51 50 39 31 34 25 36 29 21 6 341 10
53 102 94 77 159 284 183 239 87 28 347 352 350 342 333 313 269 211 192 186 173 149 159 149 145 134 126 114 112 117 106 108 118 126 127 96 85 56 48 30 37 37 24 22 17 17 3 8 341
134 124 96 120 184 230 123 255 82 17 333 331 342 341 336 321 286 231 199 173 154 149 143 150 141 130 116 102 96 101 107 111 128 111 109 73 48 50 41 28 32 39 23 352 351 346 342 336 310
228 203 190 198 195 293 60 217 55 357 359 343 336 337 337 336 304 219 193 179 163 167 162 150 155 148 141 132 115 87 94 96 93 89 59 26 98 52 27 6 11 6 359 336 323 322 310 305 299
76 298 304 263 216 95 144 204 95 352 358 9 4 0 3 7 10 191 189 183 178 164 165 164 163 151 157 151 139 142 138 117 99 89 78 354 352 5 356 351 341 346 330 313 303 295 296 291 283
122 213 21 76 86 258 103 108 172 21 16 15 12 11 6 9 11 134 175 180 167 169 172 171 169 161 175 176 170 172 169 169 159 168 199 229 274 329 337 328 325 325 311 307 302 286 290 294 290
339 89 218 181 245 229 108 120 34 2 357 358 6 5 5 5 18 34 134 163 160 156 160 173 184 188 187 189 190 186 188 187 189 202 221 237 269 291 302 312 313 313 308 304 294 286 284 287 280
92 143 31 304 280 302 252 103 360 350 353 352 355 355 357 7 8 22 66 131 148 155 169 189 201 208 206 200 197 198 195 198 200 216 219 237 271 296 300 312 311 313 312 308 300 290 279 272 274
328 21 324 277 108 350 310 105 6 356 359 360 356 353 351 2 23 29 46 77 123 159 177 199 212 222 223 209 208 209 204 203 215 221 218 231 248 269 291 302 303 308 307 304 295 291 291 283 278